Home > Weather > Nipigon > Past weeks

Flag for Canada Weather for the Past 2 Weeks in Nipigon, Ontario, Canada

Now
-18 °F

Extremely cold.


Feels Like: -37 °F
Forecast: -14 / 0 °F
Wind: 9 mph from Northwest

Location: Katatota Island

Current Time: Feb 13, 2016 at 9:00:03 AM

Latest Report: Feb 13, 2016 at 7:00 AM


Visibility: N/A

Pressure: 30.52 "Hg

Humidity: 78%

Dew point: -23 °F

Location of NipigonLocation

Historic Weather in Nipigon — Graph

°F

Nipigon Temperature Yesterday

Maximum temperature yesterday: 3 °F (at 12:00 AM)
Minimum temperature yesterday: -20 °F (at 9:00 AM)
Average temperature yesterday: -12 °F

High & Low Weather Summary for the Past Weeks

 TemperatureHumidityPressure
High37 °F (Jan 30, 2:00 PM)100% (Jan 29, 4:00 PM)30.52 "Hg (Jan 29, 4:00 PM)
Low-20 °F (Feb 12, 9:00 AM)66% (Feb 4, 1:00 PM)29.16 "Hg (Jan 30, 1:00 PM)
Average5 °F84%29.99 "Hg
* Reported Jan 29 7:00 AM — Feb 13 7:00 AM, Nipigon, Weather by CustomWeather, © 2016

Note: Actual official high and low records may vary slightly from our data, if they occured in-between our weather recording intervals... More about our weather records

Advertising

Nipigon Weather History for the Previous 24 Hours

 ConditionsComfort  
Time TempWeatherWind HumidityBarometerVisibility
7:00 AM
Sat, Feb 13
-18 °FExtremely cold.9 mph78%30.52 "HgN/A
6:00 AM-18 °FExtremely cold.12 mph77%30.51 "HgN/A
5:00 AM-17 °FExtremely cold.14 mph78%30.51 "HgN/A
4:00 AM-17 °FExtremely cold.9 mph77%30.50 "HgN/A
3:00 AM-14 °FExtremely cold.13 mph69%30.50 "HgN/A
2:00 AM-15 °FExtremely cold.13 mph74%30.49 "HgN/A
1:00 AM-13 °FExtremely cold.16 mph73%30.47 "HgN/A
12:00 AM-12 °FExtremely cold.16 mph74%30.46 "HgN/A
11:00 PM
Fri, Feb 12
-12 °FExtremely cold.18 mph75%30.45 "HgN/A
10:00 PM-11 °FExtremely cold.18 mph74%30.43 "HgN/A
9:00 PM-11 °FExtremely cold.17 mph73%30.41 "HgN/A
8:00 PM-9 °FFrigid.22 mph74%30.40 "HgN/A
7:00 PM-9 °FFrigid.16 mph79%30.38 "HgN/A
6:00 PMN/A17 mphN/A30.36 "HgN/A
5:00 PM-9 °FFrigid.16 mph68%30.34 "HgN/A
4:00 PM-10 °FFrigid.16 mph67%30.34 "HgN/A
3:00 PM-11 °FExtremely cold.15 mph67%30.32 "HgN/A
2:00 PM-14 °FExtremely cold.14 mph67%30.32 "HgN/A
1:00 PM-16 °FExtremely cold.17 mph68%30.31 "HgN/A
12:00 PM-17 °FExtremely cold.18 mph71%30.32 "HgN/A
11:00 AM-18 °FExtremely cold.20 mph71%30.31 "HgN/A
10:00 AM-19 °FExtremely cold.20 mph70%30.29 "HgN/A
9:00 AM-20 °FExtremely cold.21 mph71%30.27 "HgN/A
Weather by CustomWeather, © 2016

See weather overviewHow to use our weather pages